Le Mars, IA

4:34 AM CST on December 15, 2019 (GMT -0600)
Le Mars Municipal

Weather History for KLRJ - August, 2019

Change the Weather History Date:

Sunday, August 25, 2019

  Actual Average Record
Temperature  
Mean Temperature 68 °F -  
Max Temperature 73 °F 83 °F 96 °F (1980)
Min Temperature 62 °F 59 °F 42 °F (2015)
Cooling Degree Days 2    
Growing Degree Days 18 (Base 50)    
Moisture  
Dew Point 63 °F    
Average Humidity 89    
Maximum Humidity 100    
Minimum Humidity 73    
Precipitation  
Precipitation 0.00 in - - ()
Sea Level Pressure  
Sea Level Pressure 29.91 in    
Wind  
Wind Speed 10 mph (SE)    
Max Wind Speed 16 mph    
Max Gust Speed 21 mph    
Visibility 10 miles    
Events      
Averages and records for this station are not official NWS values.
T = Trace of Precipitation, MM = Missing Value Source: NWS Daily Summary

Daily Weather History Graph

Daily Weather History Graph

Search for Another Location

Airport or City:

Astronomy

Aug. 25, 2019 Rise Set
Actual Time 6:41 AM CDT 8:11 PM CDT
Civil Twilight 6:12 AM CDT 8:40 PM CDT
Nautical Twilight 5:36 AM CDT 9:16 PM CDT
Astronomical Twilight 4:58 AM CDT 9:54 PM CDT
Moon 1:13 AM CDT (8/25) 4:38 PM CDT (8/25)
Length of Visible Light 14h 28m
Length of Day
13h 29m
Waning Crescent, 29% of the Moon is Illuminated
Aug 25
Waning Crescent
Aug 30
New
Sep 5
First Quarter
Sep 13
Full
Sep 21
Last Quarter

Hourly Weather History & Observations

Time (CDT) Temp. Dew Point Humidity Pressure Visibility Wind Dir Wind Speed Gust Speed Precip Events Conditions
12:15 AM 64.4 °F 60.8 °F 88% 30.03 in 10.0 mi SE 8.1 mph - N/A   Overcast
12:35 AM 64.4 °F 60.8 °F 88% 30.02 in 10.0 mi SE 13.8 mph 20.7 mph N/A   Overcast
12:55 AM 64.4 °F 60.8 °F 88% 30.01 in 10.0 mi ESE 15.0 mph 20.7 mph N/A   Overcast
1:15 AM 64.4 °F 60.8 °F 88% 30.01 in 10.0 mi ESE 9.2 mph 20.7 mph N/A   Overcast
1:35 AM 64.4 °F 60.8 °F 88% 30.01 in 10.0 mi ESE 9.2 mph 17.3 mph N/A   Overcast
1:55 AM 64.4 °F 62.6 °F 94% 30.01 in 10.0 mi SE 12.7 mph - N/A   Overcast
2:15 AM 64.4 °F 62.6 °F 94% 30.00 in 10.0 mi ESE 10.4 mph - N/A   Overcast
2:35 AM 64.4 °F 62.6 °F 94% 29.99 in 10.0 mi ESE 6.9 mph 16.1 mph N/A   Overcast
2:55 AM 64.4 °F 60.8 °F 88% 29.98 in 10.0 mi ESE 10.4 mph - N/A   Overcast
3:15 AM 64.4 °F 60.8 °F 88% 29.98 in 10.0 mi SE 10.4 mph - N/A   Overcast
3:35 AM 64.4 °F 60.8 °F 88% 29.98 in 10.0 mi SE 10.4 mph - N/A   Overcast
3:55 AM 64.4 °F 60.8 °F 88% 29.98 in 10.0 mi SE 8.1 mph - N/A   Overcast
4:15 AM 64.4 °F 60.8 °F 88% 29.98 in 10.0 mi SSE 6.9 mph 12.7 mph N/A   Overcast
4:35 AM 64.4 °F 60.8 °F 88% 29.98 in 10.0 mi SE 6.9 mph - N/A   Overcast
4:55 AM 62.6 °F 60.8 °F 94% 29.98 in 10.0 mi SE 6.9 mph - N/A   Overcast
5:15 AM 62.6 °F 60.8 °F 94% 29.98 in 10.0 mi SE 5.8 mph - N/A   Overcast
5:35 AM 62.6 °F 60.8 °F 94% 29.97 in 10.0 mi SE 8.1 mph - N/A   Overcast
5:55 AM 62.6 °F 60.8 °F 94% 29.96 in 10.0 mi ESE 10.4 mph - N/A   Overcast
6:15 AM 62.6 °F 60.8 °F 94% 29.94 in 10.0 mi ESE 10.4 mph - N/A   Overcast
6:35 AM 62.6 °F 60.8 °F 94% 29.95 in 10.0 mi SE 6.9 mph - N/A   Overcast
6:55 AM 62.6 °F 60.8 °F 94% 29.94 in 10.0 mi SE 9.2 mph - N/A   Overcast
7:15 AM 62.6 °F 60.8 °F 94% 29.94 in 10.0 mi SE 10.4 mph - N/A   Overcast
7:35 AM 62.6 °F 60.8 °F 94% 29.94 in 10.0 mi SE 12.7 mph - N/A   Overcast
7:55 AM 64.4 °F 60.8 °F 88% 29.94 in 10.0 mi SE 8.1 mph - N/A   Overcast
8:15 AM 64.4 °F 60.8 °F 88% 29.94 in 10.0 mi SE 8.1 mph - N/A   Overcast
8:35 AM 64.4 °F 60.8 °F 88% 29.94 in 10.0 mi SE 8.1 mph - N/A   Overcast
8:55 AM 64.4 °F 60.8 °F 88% 29.93 in 10.0 mi SE 12.7 mph - N/A   Overcast
9:15 AM 66.2 °F 60.8 °F 83% 29.93 in 10.0 mi SE 12.7 mph 18.4 mph N/A   Overcast
9:35 AM 66.2 °F 60.8 °F 83% 29.93 in 10.0 mi SE 12.7 mph - N/A   Overcast
9:55 AM 66.2 °F 60.8 °F 83% 29.93 in 10.0 mi SE 11.5 mph - N/A   Overcast
10:15 AM 68.0 °F 60.8 °F 78% 29.93 in 10.0 mi SSE 15.0 mph - N/A   Overcast
10:35 AM 68.0 °F 60.8 °F 78% 29.93 in 10.0 mi SE 11.5 mph - N/A   Overcast
10:55 AM 68.0 °F 62.6 °F 83% 29.93 in 10.0 mi SE 13.8 mph - N/A   Overcast
11:15 AM 69.8 °F 62.6 °F 78% 29.93 in 10.0 mi SE 11.5 mph - N/A   Mostly Cloudy
11:35 AM 69.8 °F 62.6 °F 78% 29.93 in 10.0 mi SSE 15.0 mph - N/A   Mostly Cloudy
11:55 AM 69.8 °F 62.6 °F 78% 29.92 in 10.0 mi SSE 12.7 mph 19.6 mph N/A   Overcast
12:15 PM 69.8 °F 62.6 °F 78% 29.92 in 10.0 mi SE 11.5 mph 17.3 mph N/A   Overcast
12:35 PM 69.8 °F 62.6 °F 78% 29.91 in 10.0 mi SSE 15.0 mph - N/A   Overcast
12:55 PM 71.6 °F 64.4 °F 78% 29.91 in 10.0 mi SE 12.7 mph - N/A   Overcast
1:15 PM 73.4 °F 64.4 °F 73% 29.89 in 10.0 mi SSE 16.1 mph - N/A   Overcast
1:35 PM 71.6 °F 64.4 °F 78% 29.89 in 10.0 mi SE 12.7 mph 18.4 mph N/A   Overcast
1:55 PM 71.6 °F 64.4 °F 78% 29.89 in 10.0 mi SE 11.5 mph - N/A   Overcast
2:15 PM 71.6 °F 64.4 °F 78% 29.89 in 10.0 mi SE 11.5 mph 17.3 mph N/A   Overcast
2:35 PM 71.6 °F 64.4 °F 78% 29.88 in 10.0 mi SE 12.7 mph - N/A   Overcast
2:55 PM 71.6 °F 64.4 °F 78% 29.87 in 10.0 mi SE 11.5 mph 17.3 mph N/A   Overcast
3:15 PM 71.6 °F 66.2 °F 83% 29.87 in 10.0 mi SE 11.5 mph - N/A   Overcast
3:35 PM 71.6 °F 64.4 °F 78% 29.86 in 10.0 mi SE 13.8 mph - N/A   Overcast
3:55 PM 71.6 °F 66.2 °F 83% 29.86 in 10.0 mi SE 12.7 mph 18.4 mph N/A   Overcast
4:15 PM 71.6 °F 66.2 °F 83% 29.85 in 10.0 mi ESE 11.5 mph 17.3 mph N/A   Overcast
4:35 PM 71.6 °F 66.2 °F 83% 29.85 in 10.0 mi SE 9.2 mph 17.3 mph N/A   Overcast
4:55 PM 71.6 °F 66.2 °F 83% 29.84 in 10.0 mi ESE 12.7 mph - N/A   Overcast
5:15 PM 69.8 °F 66.2 °F 88% 29.84 in 10.0 mi SE 12.7 mph 19.6 mph N/A   Overcast
5:35 PM 69.8 °F 66.2 °F 88% 29.84 in 10.0 mi SE 12.7 mph - N/A   Overcast
5:55 PM 69.8 °F 66.2 °F 88% 29.84 in 10.0 mi SE 9.2 mph 18.4 mph N/A   Overcast
6:15 PM 69.8 °F 66.2 °F 88% 29.84 in 10.0 mi SE 9.2 mph 18.4 mph N/A   Overcast
6:35 PM 69.8 °F 66.2 °F 88% 29.85 in 10.0 mi SSE 11.5 mph - N/A   Overcast
6:55 PM 68.0 °F 66.2 °F 94% 29.85 in 10.0 mi SE 11.5 mph - N/A   Overcast
7:15 PM 68.0 °F 66.2 °F 94% 29.84 in 8.0 mi SE 10.4 mph 18.4 mph N/A   Overcast
7:35 PM 66.2 °F 66.2 °F 100% 29.84 in 5.0 mi SE 13.8 mph - N/A   Overcast
7:55 PM 66.2 °F 66.2 °F 100% 29.84 in 10.0 mi SE 9.2 mph - N/A   Overcast
8:15 PM 66.2 °F 66.2 °F 100% 29.84 in 8.0 mi SE 9.2 mph - N/A   Overcast
8:35 PM 68.0 °F 66.2 °F 94% 29.84 in 10.0 mi SE 8.1 mph - N/A   Overcast
8:55 PM 68.0 °F 66.2 °F 94% 29.85 in 10.0 mi SSE 10.4 mph - N/A   Overcast
9:15 PM 66.2 °F 66.2 °F 100% 29.85 in 10.0 mi SE 9.2 mph - N/A   Overcast
9:35 PM 66.2 °F 66.2 °F 100% 29.86 in 10.0 mi SE 10.4 mph - N/A   Overcast
9:55 PM 66.2 °F 66.2 °F 100% 29.85 in 10.0 mi SE 10.4 mph - N/A   Overcast
10:15 PM 66.2 °F 66.2 °F 100% 29.84 in 10.0 mi SE 10.4 mph - N/A   Overcast
10:35 PM 66.2 °F 66.2 °F 100% 29.85 in 10.0 mi SSE 8.1 mph - N/A   Overcast
10:55 PM 66.2 °F 66.2 °F 100% 29.85 in 10.0 mi SSE 8.1 mph - N/A   Overcast
11:15 PM 66.2 °F 66.2 °F 100% 29.84 in 10.0 mi SSE 5.8 mph - N/A   Overcast
11:35 PM 66.2 °F 66.2 °F 100% 29.85 in 10.0 mi SSE 5.8 mph - N/A   Overcast
11:55 PM 66.2 °F 66.2 °F 100% 29.84 in 10.0 mi SE 4.6 mph - N/A   Overcast